EN

Hourly Weather Abaete

Today, 14 June, Monday

Time Temperature Precipitation Wind Pressure Humidity
00:00 +16°C° 0 mm 2 mps 709 mmHg 67%
01:00 +16°C° 0 mm 2 mps 709 mmHg 71%
02:00 +15°C° 0 mm 2 mps 709 mmHg 75%
03:00 +14°C° 0 mm 2 mps 709 mmHg 79%
04:00 +14°C° 0 mm 2 mps 709 mmHg 82%
05:00 +14°C° 0 mm 1 mps 709 mmHg 84%
06:00 +13°C° 0 mm 1 mps 709 mmHg 87%
07:00 +15°C° 0 mm 1 mps 710 mmHg 79%
08:00 +19°C° 0 mm 1 mps 710 mmHg 70%
09:00 +20°C° 0 mm 2 mps 711 mmHg 62%
10:00 +23°C° 0 mm 1 mps 711 mmHg 55%
11:00 +26°C° 0 mm 1 mps 710 mmHg 48%
12:00 +28°C° 0 mm 1 mps 710 mmHg 41%
13:00 +28°C° 0 mm 1 mps 710 mmHg 39%
14:00 +29°C° 0 mm 1 mps 709 mmHg 36%
15:00 +29°C° 0 mm 2 mps 708 mmHg 33%
16:00 +27°C° 0 mm 2 mps 708 mmHg 38%
17:00 +25°C° 0 mm 2 mps 708 mmHg 43%
18:00 +23°C° 0 mm 2 mps 708 mmHg 48%
19:00 +21°C° 0 mm 2 mps 708 mmHg 50%
20:00 +21°C° 0 mm 2 mps 708 mmHg 52%
21:00 +20°C° 0 mm 2 mps 709 mmHg 53%
22:00 +20°C° 0 mm 1 mps 709 mmHg 56%
23:00 +19°C° 0 mm 1 mps 708 mmHg 60%

Tomorrow, 15 June, Tuesday

Time Temperature Precipitation Wind Pressure Humidity
00:00 +18°C° 0 mm 1 mps 708 mmHg 63%
01:00 +18°C° 0 mm 1 mps 708 mmHg 65%
02:00 +18°C° 0 mm 1 mps 708 mmHg 68%
03:00 +18°C° 0 mm 1 mps 708 mmHg 70%
04:00 +16°C° 0 mm 1 mps 708 mmHg 73%
05:00 +15°C° 0 mm 1 mps 708 mmHg 77%
06:00 +15°C° 0 mm 1 mps 708 mmHg 80%
07:00 +18°C° 0 mm 1 mps 709 mmHg 71%
08:00 +20°C° 0 mm 1 mps 710 mmHg 62%
09:00 +22°C° 0 mm 1 mps 710 mmHg 54%
10:00 +25°C° 0 mm 1 mps 710 mmHg 48%
11:00 +27°C° 0 mm 1 mps 710 mmHg 41%
12:00 +29°C° 0 mm 1 mps 709 mmHg 35%
13:00 +30°C° 0 mm 1 mps 709 mmHg 34%
14:00 +30°C° 0 mm 1 mps 708 mmHg 32%
15:00 +31°C° 0 mm 1 mps 707 mmHg 30%
16:00 +29°C° 0 mm 1 mps 707 mmHg 34%
17:00 +27°C° 0 mm 1 mps 707 mmHg 38%
18:00 +25°C° 0 mm 1 mps 707 mmHg 42%
19:00 +24°C° 0 mm 1 mps 707 mmHg 45%
20:00 +23°C° 0 mm 1 mps 707 mmHg 49%
21:00 +19°C° 0 mm 0 mps 707 mmHg 52%
22:00 +19°C° 0 mm 0 mps 707 mmHg 54%
23:00 +20°C° 0 mm 1 mps 707 mmHg 56%

Day after tomorrow, 16 June, Wednesday

Time Temperature Precipitation Wind Pressure Humidity
00:00 +20°C° 0 mm 1 mps 707 mmHg 57%
01:00 +19°C° 0 mm 1 mps 707 mmHg 59%
02:00 +19°C° 0 mm 1 mps 706 mmHg 61%
03:00 +18°C° 0 mm 1 mps 706 mmHg 63%
04:00 +18°C° 0 mm 1 mps 706 mmHg 65%
05:00 +16°C° 0 mm 1 mps 706 mmHg 67%
06:00 +16°C° 0 mm 1 mps 706 mmHg 70%
07:00 +19°C° 0 mm 1 mps 707 mmHg 62%
08:00 +21°C° 0 mm 1 mps 708 mmHg 54%
09:00 +24°C° 0 mm 1 mps 709 mmHg 46%
10:00 +26°C° 0 mm 1 mps 708 mmHg 41%
11:00 +26°C° 0 mm 0 mps 708 mmHg 36%
12:00 +29°C° 0 mm 0 mps 708 mmHg 30%
13:00 +31°C° 0 mm 1 mps 708 mmHg 28%
14:00 +31°C° 0 mm 1 mps 707 mmHg 26%
15:00 +31°C° 0 mm 1 mps 706 mmHg 23%
16:00 +29°C° 0 mm 1 mps 706 mmHg 28%
17:00 +26°C° 0 mm 1 mps 706 mmHg 33%
18:00 +24°C° 0 mm 1 mps 706 mmHg 38%
19:00 +23°C° 0 mm 1 mps 706 mmHg 40%
20:00 +22°C° 0 mm 1 mps 707 mmHg 42%
21:00 +21°C° 0 mm 1 mps 707 mmHg 44%
22:00 +20°C° 0 mm 1 mps 707 mmHg 45%
23:00 +20°C° 0 mm 1 mps 707 mmHg 46%

17 June, Thursday

Time Temperature Precipitation Wind Pressure Humidity
00:00 +18°C° 0 mm 2 mps 707 mmHg 46%
01:00 +17°C° 0 mm 2 mps 707 mmHg 48%
02:00 +16°C° 0 mm 2 mps 707 mmHg 49%
03:00 +16°C° 0 mm 2 mps 707 mmHg 51%
04:00 +15°C° 0 mm 2 mps 707 mmHg 55%
05:00 +15°C° 0 mm 2 mps 708 mmHg 60%
06:00 +14°C° 0 mm 2 mps 708 mmHg 64%
07:00 +16°C° 0 mm 2 mps 709 mmHg 61%
08:00 +18°C° 0 mm 2 mps 709 mmHg 58%
09:00 +20°C° 0 mm 2 mps 710 mmHg 55%
10:00 +24°C° 0 mm 2 mps 710 mmHg 50%
11:00 +26°C° 0 mm 1 mps 710 mmHg 44%
12:00 +28°C° 0 mm 1 mps 710 mmHg 39%
13:00 +29°C° 0 mm 1 mps 709 mmHg 36%
14:00 +29°C° 0 mm 1 mps 708 mmHg 33%
15:00 +30°C° 0 mm 2 mps 708 mmHg 30%
16:00 +28°C° 0 mm 2 mps 708 mmHg 34%
17:00 +25°C° 0 mm 2 mps 708 mmHg 39%
18:00 +23°C° 0 mm 2 mps 707 mmHg 44%
19:00 +22°C° 0 mm 1 mps 708 mmHg 46%
20:00 +21°C° 0 mm 1 mps 708 mmHg 48%
21:00 +21°C° 0 mm 1 mps 708 mmHg 51%
22:00 +20°C° 0 mm 1 mps 708 mmHg 54%
23:00 +19°C° 0 mm 1 mps 708 mmHg 57%

18 June, Friday

Time Temperature Precipitation Wind Pressure Humidity
00:00 +18°C° 0 mm 1 mps 708 mmHg 61%
01:00 +18°C° 0 mm 1 mps 708 mmHg 65%
02:00 +16°C° 0 mm 1 mps 708 mmHg 69%
03:00 +15°C° 0 mm 1 mps 708 mmHg 73%
04:00 +15°C° 0 mm 1 mps 709 mmHg 75%
05:00 +15°C° 0 mm 1 mps 709 mmHg 78%
06:00 +14°C° 0 mm 1 mps 709 mmHg 81%
07:00 +16°C° 0 mm 1 mps 710 mmHg 74%
08:00 +18°C° 0 mm 2 mps 711 mmHg 68%
09:00 +21°C° 0 mm 2 mps 712 mmHg 62%
10:00 +24°C° 0 mm 2 mps 711 mmHg 54%
11:00 +26°C° 0 mm 2 mps 711 mmHg 46%
12:00 +29°C° 0 mm 2 mps 711 mmHg 38%
13:00 +29°C° 0 mm 1 mps 710 mmHg 34%
14:00 +30°C° 0 mm 1 mps 710 mmHg 31%
15:00 +29°C° 0 mm 0 mps 709 mmHg 28%
16:00 +29°C° 0 mm 1 mps 709 mmHg 32%
17:00 +27°C° 0 mm 1 mps 709 mmHg 37%
18:00 +24°C° 0 mm 1 mps 709 mmHg 41%
19:00 +24°C° 0 mm 1 mps 709 mmHg 43%
20:00 +23°C° 0 mm 1 mps 709 mmHg 45%
21:00 +20°C° 0 mm 0 mps 709 mmHg 47%
22:00 +21°C° 0 mm 1 mps 709 mmHg 52%
23:00 +20°C° 0 mm 1 mps 709 mmHg 57%

19 June, Saturday

Time Temperature Precipitation Wind Pressure Humidity
00:00 +19°C° 0 mm 1 mps 709 mmHg 62%
01:00 +18°C° 0 mm 1 mps 709 mmHg 68%
02:00 +18°C° 0 mm 1 mps 709 mmHg 73%
03:00 +16°C° 0 mm 1 mps 708 mmHg 79%
04:00 +16°C° 0 mm 1 mps 709 mmHg 83%
05:00 +15°C° 0 mm 1 mps 709 mmHg 86%
06:00 +15°C° 0 mm 1 mps 709 mmHg 90%
07:00 +18°C° 0 mm 1 mps 710 mmHg 81%
08:00 +20°C° 0 mm 1 mps 710 mmHg 72%
09:00 +21°C° 0 mm 2 mps 711 mmHg 63%
10:00 +24°C° 0 mm 2 mps 711 mmHg 55%
11:00 +26°C° 0 mm 3 mps 711 mmHg 47%
12:00 +28°C° 0 mm 3 mps 710 mmHg 39%
13:00 +29°C° 0 mm 3 mps 710 mmHg 36%
14:00 +30°C° 0 mm 3 mps 709 mmHg 34%
15:00 +31°C° 0 mm 3 mps 708 mmHg 31%
16:00 +29°C° 0 mm 3 mps 708 mmHg 35%
17:00 +27°C° 0 mm 2 mps 708 mmHg 40%
18:00 +25°C° 0 mm 2 mps 708 mmHg 44%
19:00 +24°C° 0 mm 2 mps 708 mmHg 46%
20:00 +23°C° 0 mm 2 mps 708 mmHg 47%
21:00 +23°C° 0 mm 2 mps 708 mmHg 49%
22:00 +22°C° 0 mm 1 mps 708 mmHg 50%
23:00 +22°C° 0 mm 1 mps 708 mmHg 52%
Show more